| time (UTC) | temp F | wind direction | speed MPH | gust MPH | rain 1hr in | rain 24hr in | rain mn in | humidity % | barometer mb |
| 20260507003015 | 44 | 166 | 0.0 | 0.0 | 0.00 | 0.05 | 0.00 | 91 | 1012.0 |
| 20260507001507 | 44 | 166 | 0.0 | 4.0 | 0.00 | 0.05 | 0.00 | 90 | 1012.1 |
| 20260507000004 | 44 | 170 | 3.0 | 6.0 | 0.00 | 0.05 | 0.00 | 90 | 1012.1 |
| 20260506234502 | 45 | 147 | 3.0 | 6.0 | 0.00 | 0.05 | 0.00 | 90 | 1012.0 |
| 20260506233109 | 45 | 149 | 2.0 | 5.0 | 0.00 | 0.05 | 0.00 | 90 | 1011.9 |
| 20260506231559 | 45 | 148 | 2.0 | 6.0 | 0.00 | 0.05 | 0.00 | 91 | 1011.9 |
| 20260506230056 | 45 | 124 | 2.0 | 4.0 | 0.00 | 0.05 | 0.00 | 91 | 1011.7 |
| 20260506224555 | 46 | 145 | 2.0 | 3.0 | 0.00 | 0.06 | 0.00 | 91 | 1011.5 |
| 20260506223058 | 46 | 145 | 0.0 | 3.0 | 0.00 | 0.06 | 0.00 | 90 | 1011.6 |
| 20260506221550 | 46 | 144 | 2.0 | 4.0 | 0.00 | 0.06 | 0.00 | 90 | 1011.3 |
| 20260506220051 | 46 | 165 | 3.0 | 5.0 | 0.00 | 0.06 | 0.00 | 90 | 1011.1 |
| 20260506214544 | 46 | 136 | 3.0 | 6.0 | 0.00 | 0.06 | 0.06 | 90 | 1011.1 |
| 20260506213043 | 46 | 136 | 3.0 | 8.0 | 0.00 | 0.06 | 0.06 | 90 | 1011.0 |
| 20260506211550 | 47 | 134 | 3.0 | 8.0 | 0.00 | 0.06 | 0.06 | 89 | 1010.9 |
| 20260506210041 | 47 | 146 | 2.0 | 6.0 | 0.00 | 0.06 | 0.06 | 89 | 1010.9 |
| 20260506204539 | 47 | 154 | 3.0 | 6.0 | 0.00 | 0.06 | 0.06 | 88 | 1010.7 |
| 20260506203038 | 47 | 180 | 3.0 | 6.0 | 0.00 | 0.06 | 0.06 | 88 | 1010.8 |
| 20260506201537 | 47 | 165 | 3.0 | 6.0 | 0.00 | 0.06 | 0.06 | 88 | 1010.6 |
| 20260506200035 | 47 | 165 | 2.0 | 4.0 | 0.00 | 0.06 | 0.06 | 87 | 1010.6 |
| 20260506194537 | 48 | 162 | 1.0 | 5.0 | 0.00 | 0.11 | 0.06 | 87 | 1010.4 |
| 20260506193034 | 48 | 152 | 2.0 | 5.0 | 0.00 | 0.11 | 0.06 | 87 | 1010.2 |
| 20260506191533 | 48 | 175 | 4.0 | 6.0 | 0.00 | 0.11 | 0.06 | 86 | 1009.7 |
| 20260506190029 | 48 | 177 | 3.0 | 6.0 | 0.00 | 0.11 | 0.06 | 87 | 1009.6 |
| 20260506184526 | 48 | 170 | 3.0 | 4.0 | 0.00 | 0.23 | 0.06 | 86 | 1009.4 |
| 20260506183023 | 49 | 191 | 3.0 | 8.0 | 0.00 | 0.23 | 0.06 | 87 | 1009.3 |
| 20260506181521 | 49 | 174 | 6.0 | 12.0 | 0.00 | 0.23 | 0.06 | 86 | 1009.3 |
| 20260506180018 | 50 | 171 | 6.0 | 13.0 | 0.00 | 0.23 | 0.06 | 85 | 1008.9 |
| 20260506174515 | 50 | 191 | 3.0 | 7.0 | 0.00 | 0.28 | 0.06 | 85 | 1008.7 |
| 20260506173014 | 50 | 229 | 3.0 | 12.0 | 0.00 | 0.28 | 0.06 | 85 | 1008.5 |
| 20260506171512 | 50 | 200 | 4.0 | 9.0 | 0.00 | 0.28 | 0.06 | 86 | 1008.4 |
| 20260506170011 | 50 | 186 | 7.0 | 12.0 | 0.00 | 0.28 | 0.06 | 85 | 1008.2 |
| 20260506164510 | 51 | 175 | 3.0 | 8.0 | 0.00 | 0.28 | 0.06 | 86 | 1008.2 |
| 20260506163009 | 51 | 166 | 5.0 | 9.0 | 0.00 | 0.28 | 0.06 | 85 | 1008.3 |
| 20260506161510 | 51 | 181 | 4.0 | 10.0 | 0.00 | 0.28 | 0.06 | 86 | 1008.2 |
| 20260506160008 | 51 | 200 | 4.0 | 12.0 | 0.00 | 0.28 | 0.06 | 86 | 1008.2 |
| 20260506154506 | 51 | 222 | 4.0 | 10.0 | 0.00 | 0.28 | 0.06 | 86 | 1008.1 |
| 20260506153005 | 51 | 161 | 5.0 | 10.0 | 0.00 | 0.28 | 0.06 | 86 | 1008.0 |
| 20260506151503 | 51 | 156 | 3.0 | 10.0 | 0.00 | 0.28 | 0.06 | 87 | 1007.9 |
| 20260506150002 | 51 | 165 | 5.0 | 12.0 | 0.00 | 0.31 | 0.06 | 87 | 1007.8 |
| 20260506144503 | 52 | 167 | 7.0 | 11.0 | 0.00 | 0.31 | 0.06 | 88 | 1007.7 |
| 20260506143100 | 51 | 208 | 6.0 | 13.0 | 0.00 | 0.31 | 0.06 | 90 | 1007.6 |
| 20260506141600 | 51 | 163 | 7.0 | 11.0 | 0.00 | 0.31 | 0.06 | 91 | 1007.7 |
| 20260506140122 | 50 | 191 | 7.0 | 10.0 | 0.00 | 0.31 | 0.06 | 91 | 1007.8 |
| 20260506134558 | 51 | 150 | 4.0 | 10.0 | 0.00 | 0.32 | 0.06 | 89 | 1007.7 |
| 20260506133134 | 51 | 152 | 5.0 | 9.0 | 0.00 | 0.32 | 0.06 | 90 | 1007.9 |
| 20260506131557 | 51 | 153 | 5.0 | 11.0 | 0.00 | 0.32 | 0.06 | 89 | 1007.7 |
| 20260506130137 | 51 | 136 | 5.0 | 9.0 | 0.00 | 0.32 | 0.06 | 89 | 1007.6 |
| 20260506124554 | 52 | 146 | 7.0 | 12.0 | 0.00 | 0.35 | 0.06 | 90 | 1007.5 |
| 20260506123052 | 51 | 181 | 5.0 | 9.0 | 0.00 | 0.35 | 0.06 | 91 | 1007.3 |
| 20260506121554 | 51 | 161 | 5.0 | 10.0 | 0.00 | 0.35 | 0.06 | 92 | 1007.2 |
| 20260506120052 | 50 | 129 | 4.0 | 8.0 | 0.00 | 0.35 | 0.06 | 92 | 1007.2 |
| 20260506114549 | 50 | 150 | 3.0 | 5.0 | 0.00 | 0.36 | 0.06 | 92 | 1007.1 |
| 20260506113052 | 50 | 146 | 5.0 | 8.0 | 0.00 | 0.36 | 0.06 | 93 | 1007.0 |
| 20260506111547 | 50 | 186 | 2.0 | 6.0 | 0.00 | 0.36 | 0.06 | 93 | 1006.9 |
| 20260506110046 | 50 | 167 | 4.0 | 10.0 | 0.00 | 0.36 | 0.06 | 93 | 1006.7 |
| 20260506104554 | 50 | 172 | 4.0 | 8.0 | 0.00 | 0.36 | 0.06 | 94 | 1006.6 |
| 20260506103045 | 50 | 174 | 4.0 | 9.0 | 0.00 | 0.36 | 0.06 | 94 | 1006.5 |
| 20260506101546 | 50 | 154 | 4.0 | 9.0 | 0.00 | 0.36 | 0.06 | 94 | 1006.6 |
| 20260506100057 | 51 | 125 | 4.0 | 9.0 | 0.00 | 0.36 | 0.06 | 95 | 1006.5 |
| 20260506094544 | 50 | 146 | 5.0 | 8.0 | 0.01 | 0.36 | 0.06 | 95 | 1006.2 |
| 20260506093045 | 50 | 151 | 5.0 | 10.0 | 0.01 | 0.36 | 0.06 | 95 | 1006.2 |
| 20260506091542 | 50 | 196 | 4.0 | 10.0 | 0.01 | 0.36 | 0.06 | 95 | 1005.9 |
| 20260506090043 | 50 | 170 | 4.0 | 9.0 | 0.01 | 0.36 | 0.06 | 95 | 1006.0 |
| 20260506084541 | 50 | 143 | 5.0 | 9.0 | 0.01 | 0.35 | 0.05 | 95 | 1005.9 |
| 20260506083041 | 50 | 137 | 4.0 | 9.0 | 0.01 | 0.35 | 0.05 | 95 | 1005.8 |
| 20260506081552 | 50 | 150 | 5.0 | 8.0 | 0.02 | 0.35 | 0.05 | 95 | 1005.6 |
| 20260506073039 | 50 | 152 | 3.0 | 6.0 | 0.02 | 0.35 | 0.04 | 96 | 1005.6 |
| 20260506071542 | 50 | 167 | 2.0 | 5.0 | 0.02 | 0.34 | 0.03 | 95 | 1005.4 |
| 20260506061543 | 50 | 44 | 7.0 | 10.0 | 0.01 | 0.32 | 0.02 | 96 | 1005.0 |
| 20260506044544 | 50 | 38 | 4.0 | 10.0 | 0.00 | 0.31 | 0.01 | 95 | 1004.7 |
| 20260506043030 | 50 | 61 | 4.0 | 9.0 | 0.00 | 0.31 | 0.01 | 95 | 1004.8 |
| 20260506041532 | 50 | 38 | 7.0 | 13.0 | 0.00 | 0.31 | 0.01 | 95 | 1004.9 |
| 20260506040027 | 50 | 53 | 7.0 | 14.0 | 0.00 | 0.31 | 0.01 | 95 | 1005.0 |
| 20260506034525 | 50 | 38 | 7.0 | 10.0 | 0.00 | 0.31 | 0.01 | 95 | 1005.2 |
| 20260506033028 | 50 | 10 | 7.0 | 11.0 | 0.00 | 0.31 | 0.01 | 95 | 1005.2 |
| 20260506031539 | 50 | 42 | 6.0 | 11.0 | 0.00 | 0.31 | 0.01 | 95 | 1005.4 |
| 20260506030021 | 50 | 75 | 6.0 | 11.0 | 0.00 | 0.31 | 0.01 | 95 | 1005.3 |
| 20260506024526 | 50 | 59 | 6.0 | 10.0 | 0.00 | 0.31 | 0.01 | 95 | 1005.4 |
| 20260506023018 | 50 | 79 | 8.0 | 15.0 | 0.00 | 0.31 | 0.01 | 95 | 1005.4 |
| 20260506021519 | 51 | 96 | 6.0 | 14.0 | 0.00 | 0.31 | 0.01 | 95 | 1005.5 |
| 20260506020017 | 51 | 81 | 8.0 | 12.0 | 0.00 | 0.31 | 0.01 | 95 | 1005.3 |
| 20260506014515 | 51 | 78 | 7.0 | 13.0 | 0.00 | 0.31 | 0.01 | 95 | 1005.4 |
| 20260506013017 | 51 | 70 | 8.0 | 14.0 | 0.00 | 0.31 | 0.01 | 95 | 1005.4 |
| 20260506011517 | 51 | 53 | 10.0 | 19.0 | 0.00 | 0.31 | 0.01 | 95 | 1005.6 |
| 20260506010031 | 51 | 31 | 8.0 | 15.0 | 0.00 | 0.31 | 0.01 | 95 | 1005.7 |
| 20260506004510 | 51 | 48 | 4.0 | 13.0 | 0.00 | 0.31 | 0.01 | 95 | 1005.8 |